Theta_e
324 318 311 307 307 304 313 308 298 297 294 289 287 290 293 300 301 298 295 297 294 296 297 297 297 296 296 294 293 292 293 292 289 295 292 297 301 301 300 301 301 303 302 301 301 302 304 324 335 337 340 340 340 340 340 339 340 341 341 340 341 339 339 339 340 339 340 340 339 340 341 341 340 339 340 340 340 341 341 342 341 341 342 339 340 340 340 340 341 339 340 341 340 340 340 340 341
319 309 304 308 306 311 307 301 292 293 289 287 289 291 294 297 297 294 295 296 296 296 297 296 297 297 296 296 296 297 294 293 295 294 298 300 300 301 299 300 300 300 299 300 301 301 307 323 332 334 337 337 338 338 337 337 338 338 338 339 339 338 339 339 339 339 339 339 339 339 339 339 339 339 339 339 339 338 338 338 340 340 340 341 341 342 340 340 339 340 340 340 340 341 340 339 339
310 304 303 306 306 309 305 303 296 285 288 286 288 291 296 294 293 295 296 296 297 298 296 295 295 293 295 297 296 296 291 295 294 295 297 298 294 296 298 299 300 298 298 300 300 302 312 322 330 331 333 335 335 336 336 335 335 335 335 335 336 336 336 336 336 336 337 336 336 335 335 336 336 336 336 336 336 335 335 335 336 337 337 337 337 338 340 340 339 340 340 340 340 340 339 340 338
302 306 302 305 304 302 298 292 288 290 286 285 287 293 293 293 293 295 296 297 297 297 296 295 293 296 294 292 290 299 293 293 295 294 293 295 294 296 299 299 299 298 298 299 299 301 312 321 327 329 330 332 333 333 333 333 332 332 332 333 333 333 333 333 333 332 332 332 332 333 332 333 334 334 334 334 334 333 333 332 333 333 333 333 334 334 335 337 337 336 336 337 338 339 339 338 338
302 306 304 303 302 301 294 289 286 285 286 284 287 291 294 294 294 294 294 295 295 296 297 295 296 295 293 291 293 292 290 295 295 296 295 297 298 299 298 298 297 298 298 298 298 300 307 319 323 326 328 330 331 331 331 331 331 331 330 330 330 330 330 330 329 329 329 329 329 329 329 329 330 331 332 332 331 331 330 330 330 330 331 331 331 332 332 332 333 334 334 334 335 336 336 336 336
298 302 305 307 301 302 294 288 286 285 287 288 287 291 294 295 294 294 294 296 296 296 296 295 296 294 290 290 292 288 294 289 295 295 296 295 298 299 298 298 296 296 296 296 297 298 305 316 319 323 325 328 329 329 329 328 328 328 328 327 327 326 326 326 326 327 326 326 326 326 326 326 326 327 328 329 329 329 328 328 329 329 328 328 329 329 330 330 330 331 331 331 332 333 334 333 332
299 301 300 300 298 297 287 285 285 284 288 290 289 291 295 295 295 295 294 295 295 295 296 294 294 294 292 293 294 295 298 298 295 297 298 297 297 298 297 296 295 296 296 296 296 298 305 314 316 320 322 324 326 326 326 326 325 325 324 324 323 323 323 323 323 323 323 323 323 323 323 323 323 323 324 326 327 327 327 326 326 326 325 326 326 326 326 326 327 327 326 327 328 329 330 330 330
304 302 297 293 289 290 285 285 285 284 288 291 293 293 294 295 296 294 292 294 292 291 293 294 294 291 288 296 289 296 299 299 301 303 302 298 296 296 297 296 295 296 296 296 297 298 306 312 313 315 319 322 324 323 323 323 322 321 321 321 322 322 321 321 321 320 321 320 320 320 320 320 320 320 320 321 323 324 324 324 324 324 323 323 324 324 323 323 323 324 324 324 324 324 325 326 325
299 300 297 295 288 287 284 284 286 289 290 290 291 295 297 295 295 293 292 293 293 292 291 291 294 291 289 287 286 291 294 297 299 299 298 296 296 297 296 296 296 296 297 297 297 298 300 309 312 313 315 317 319 320 321 321 321 321 320 320 319 319 320 320 320 319 319 318 319 318 318 317 318 318 318 318 319 321 323 323 322 322 322 322 322 322 322 321 321 321 321 321 321 322 322 322 322
296 297 291 289 288 285 283 283 284 288 289 290 290 290 291 294 294 294 293 292 292 292 291 292 293 289 289 285 287 289 293 295 296 295 295 296 297 298 297 297 297 297 297 297 298 298 300 305 309 311 312 315 316 317 318 319 319 319 320 319 320 319 319 319 319 318 318 317 317 317 317 316 316 316 316 317 316 317 319 320 320 320 320 321 320 320 320 320 319 319 319 318 318 319 319 319 319
291 292 294 289 283 282 284 285 285 288 289 289 289 289 290 292 294 292 292 292 293 292 292 291 289 288 287 285 286 295 296 295 293 292 295 297 298 297 296 297 297 297 297 297 297 297 297 299 305 308 308 311 313 314 316 317 317 317 317 317 317 317 317 317 318 318 318 317 316 315 315 316 315 314 314 314 314 314 315 317 318 318 318 318 318 318 318 318 318 317 317 317 316 316 316 316 316
290 287 290 283 281 284 283 287 287 287 287 288 288 288 288 290 291 288 288 288 288 290 288 289 290 291 286 284 286 292 293 292 293 294 296 297 297 298 297 296 296 297 297 296 297 296 296 297 298 302 304 306 308 310 311 313 314 314 315 314 314 314 313 313 313 314 314 314 314 313 313 314 314 313 312 312 313 313 313 314 315 316 315 315 316 316 316 317 317 316 316 315 314 314 314 314 314
291 288 288 285 282 284 285 286 285 288 283 286 286 288 288 288 286 287 288 287 286 289 288 288 289 294 285 285 289 292 291 292 294 295 296 296 297 298 298 295 296 296 296 297 296 296 296 295 296 297 300 302 302 305 307 308 310 310 311 311 311 311 310 310 310 311 310 311 310 309 310 310 311 311 310 310 310 311 310 311 312 314 314 314 314 314 314 314 315 315 314 314 313 312 312 312 312
290 288 288 284 282 284 283 283 283 284 284 287 287 287 287 285 285 286 289 286 284 284 288 288 290 291 285 287 288 289 290 293 295 295 296 295 296 298 299 297 297 296 296 296 296 296 297 297 296 296 296 296 295 298 302 305 305 307 307 308 308 307 307 307 307 307 307 307 307 307 307 307 307 308 307 307 307 307 307 308 309 312 313 312 312 312 313 313 313 313 312 312 311 310 309 309 309
291 289 286 282 281 280 283 283 284 283 283 285 288 286 286 287 286 286 287 286 285 286 288 290 290 289 286 287 286 288 291 294 295 298 296 297 296 296 297 296 295 296 295 296 296 296 296 298 297 297 297 296 296 296 296 299 304 304 305 305 305 305 305 305 305 305 305 305 305 305 304 304 304 305 305 304 305 305 306 305 306 308 310 310 310 310 311 311 311 311 311 310 309 308 307 306 306
292 289 285 282 280 282 283 283 283 283 284 285 288 287 287 286 287 285 286 289 285 287 288 286 289 288 288 289 289 291 293 294 296 297 296 296 295 295 293 293 293 293 294 295 296 296 296 296 296 296 296 296 296 296 296 296 301 302 303 304 303 304 303 303 303 302 302 303 302 303 303 298 299 298 303 299 303 303 303 302 304 305 307 308 307 307 308 308 308 308 308 308 307 306 304 303 303
290 291 284 280 280 280 282 283 284 282 285 286 287 287 286 284 286 286 288 288 284 284 286 286 288 291 287 287 291 293 294 297 297 294 294 293 292 292 292 292 293 292 293 293 293 294 295 295 295 295 295 295 295 296 296 296 298 300 299 301 302 302 302 301 301 300 299 299 299 299 298 295 294 294 295 296 299 297 301 301 301 302 304 305 305 305 305 306 306 306 306 306 305 304 301 300 300
290 284 282 281 279 280 282 283 285 286 284 286 284 285 286 284 286 286 288 286 286 286 286 288 290 289 291 291 293 294 295 293 292 291 291 291 292 290 290 290 290 290 291 292 292 293 293 294 294 294 294 294 294 296 296 297 296 297 294 294 297 297 299 299 296 296 297 294 298 295 294 295 293 293 295 298 295 296 296 300 300 301 301 303 303 302 303 303 304 304 304 304 303 301 299 291 293
284 279 282 281 278 282 283 284 285 285 284 284 284 284 286 286 286 287 284 282 284 284 285 287 285 288 290 291 292 292 293 292 291 290 290 289 290 290 289 290 289 290 290 291 291 292 292 293 293 293 293 293 293 294 295 295 293 293 293 293 294 296 296 296 293 295 293 293 294 293 294 293 293 293 294 297 296 297 295 298 298 299 299 300 300 299 300 301 301 301 302 301 300 298 291 291 291
284 285 281 279 282 283 283 283 284 286 285 283 283 284 283 283 284 286 283 281 283 282 284 285 284 284 287 289 291 291 292 292 291 290 290 291 291 291 291 289 289 289 290 291 291 293 292 291 292 293 293 292 292 292 294 293 292 292 292 293 292 291 290 291 290 291 291 291 292 293 292 293 292 291 296 296 295 292 292 295 296 296 296 297 298 294 297 297 298 298 298 298 295 293 290 290 291
284 284 278 282 283 282 285 284 285 285 284 283 282 283 283 283 282 283 283 284 282 282 284 285 285 285 287 289 290 290 290 289 290 291 291 290 290 290 290 290 288 289 291 291 291 291 291 291 291 291 292 292 291 290 291 292 291 290 291 292 291 291 289 289 289 289 290 290 291 292 292 292 291 290 291 290 290 291 290 290 290 290 290 290 296 290 290 291 291 290 290 292 290 290 290 290 290
283 280 282 283 282 283 284 283 283 283 283 283 282 284 284 283 282 280 281 284 282 282 285 287 287 288 288 287 287 288 288 288 288 288 288 288 289 288 288 287 288 288 291 288 288 288 291 290 290 291 292 290 290 290 290 293 290 289 290 292 291 292 290 289 288 288 289 289 290 292 292 289 289 289 289 289 289 289 289 289 289 289 289 289 291 289 289 289 289 290 289 289 289 290 290 290 290
283 282 281 282 283 283 283 283 281 282 280 280 281 283 281 280 281 280 281 280 282 286 287 287 288 289 288 288 287 286 287 287 288 287 289 288 288 288 287 287 286 286 287 286 287 287 291 289 288 289 290 289 288 288 288 287 287 287 289 291 289 291 287 288 287 287 288 288 289 291 291 288 288 288 289 288 287 287 287 288 288 288 288 288 289 288 288 289 288 288 288 288 289 289 289 289 290
287 281 281 282 282 280 280 281 280 280 282 281 281 282 280 280 280 281 281 282 283 283 285 285 287 288 287 285 286 285 285 286 286 289 288 287 289 288 288 287 286 285 286 286 286 286 288 288 287 287 288 290 287 287 288 287 287 287 291 291 287 295 288 287 287 288 288 287 289 290 293 288 287 286 287 287 287 287 287 288 287 287 286 286 288 288 287 287 287 287 287 287 287 288 288 289 289
284 282 283 282 281 280 281 280 281 281 280 281 282 280 279 281 281 280 280 282 283 283 284 284 283 282 282 282 283 284 284 285 285 286 286 285 285 287 285 285 285 283 284 285 285 286 286 291 287 286 287 289 288 287 288 287 287 287 288 287 286 296 287 287 287 287 286 287 287 289 291 288 287 287 286 286 286 286 286 286 287 287 287 286 287 286 286 286 286 286 286 286 286 286 286 287 288
282 282 281 281 281 282 281 282 280 280 282 281 282 280 280 280 281 280 281 283 282 283 283 282 281 282 281 282 283 283 283 284 284 284 286 283 284 284 284 284 286 283 284 285 284 285 285 289 286 286 286 290 290 287 287 288 287 286 288 288 286 291 286 288 288 285 286 285 286 287 288 289 288 287 286 285 286 286 286 286 286 286 286 286 286 286 287 286 285 285 285 286 285 285 285 286 288
282 282 282 282 282 282 281 281 281 280 281 279 279 280 280 280 281 279 281 280 282 282 280 279 280 281 281 282 282 281 282 283 283 283 284 283 283 283 284 283 283 284 285 284 284 285 290 286 286 287 286 292 289 287 288 288 288 286 289 288 287 287 288 290 287 286 286 285 287 286 287 287 289 288 286 285 285 286 285 285 285 285 285 286 286 286 287 287 286 285 286 285 285 285 285 285 286
283 283 283 282 281 284 282 279 280 281 283 278 280 279 279 278 282 279 279 281 281 280 279 279 278 279 280 281 281 282 282 281 282 283 283 282 282 283 283 283 283 284 284 284 284 286 287 286 286 287 287 288 290 288 289 288 288 287 289 288 287 288 290 288 286 287 289 285 287 286 286 286 290 288 286 286 286 286 285 285 285 285 285 285 286 285 286 286 286 286 286 286 286 285 286 286 286
282 281 281 281 280 284 283 280 282 281 282 282 279 280 277 277 279 280 280 280 280 278 278 279 278 278 278 279 280 281 280 281 282 282 281 281 281 284 283 283 284 283 284 284 285 286 285 286 289 288 287 288 287 288 288 288 287 287 287 288 288 291 288 287 286 287 286 286 287 286 286 286 289 287 286 287 289 286 285 285 285 286 285 285 285 286 286 285 285 284 285 286 285 286 286 285 286
283 281 279 278 277 279 283 282 282 282 283 281 280 275 276 277 278 279 280 280 278 278 279 279 277 276 276 277 278 279 281 281 281 282 281 281 282 282 285 283 286 284 284 287 285 286 288 289 288 289 290 289 290 289 290 287 287 288 292 287 288 288 287 286 288 287 286 287 286 286 286 286 288 286 286 286 286 285 285 285 285 285 285 285 285 286 284 284 284 284 284 284 286 285 284 284 285
278 279 278 275 273 276 281 281 282 282 282 280 283 276 274 277 279 280 279 279 279 278 279 278 276 277 276 278 278 280 280 280 281 280 281 282 282 282 284 283 283 284 286 285 284 285 287 287 290 289 290 288 287 286 287 288 289 287 287 287 288 288 288 287 286 286 285 286 286 286 286 287 288 287 286 286 286 285 285 285 285 285 285 286 285 285 285 284 284 284 284 283 283 283 283 284 284
277 277 276 275 275 278 278 281 281 278 280 280 281 274 277 277 279 278 279 278 277 278 278 277 276 276 276 276 278 279 280 280 280 281 281 281 282 282 284 284 283 283 285 284 285 287 285 285 286 287 287 286 286 288 288 287 287 287 286 291 288 287 287 287 287 286 286 285 286 285 285 287 288 287 287 286 286 286 285 285 285 286 286 285 285 285 285 284 284 284 284 283 283 283 284 283 283
278 277 276 275 274 276 276 280 280 280 278 280 280 277 276 278 279 279 278 279 278 277 277 276 276 276 277 278 278 279 280 280 281 281 281 281 282 282 282 283 283 284 283 283 284 285 285 285 286 285 286 287 288 288 287 287 287 287 287 287 287 287 287 287 287 286 286 286 285 285 286 287 287 287 287 286 286 286 285 285 286 286 286 285 284 284 284 285 283 284 283 285 283 282 282 282 283
276 276 275 276 275 275 274 277 280 280 279 276 278 275 275 277 278 277 278 278 278 278 277 276 277 277 278 278 278 278 279 279 280 282 282 282 282 283 282 287 288 285 285 288 286 285 285 285 285 288 289 288 287 286 287 286 287 287 286 286 288 287 286 286 286 285 286 286 285 286 286 287 289 287 287 287 286 287 287 286 286 286 286 285 284 284 284 284 283 283 282 283 283 282 282 282 282
276 275 274 274 274 274 275 275 278 280 278 277 276 276 276 276 277 277 277 277 278 277 276 277 277 277 278 278 278 279 279 279 281 282 281 282 282 282 282 282 283 285 284 283 283 284 284 285 287 286 288 286 286 286 286 287 286 286 286 286 286 286 287 286 286 286 286 286 286 286 287 288 289 287 287 287 286 286 286 286 286 286 286 285 284 284 284 284 285 284 282 283 283 283 282 282 282
277 276 275 275 274 274 275 276 276 278 277 276 275 274 275 276 277 277 278 277 276 276 277 277 277 277 278 278 279 279 279 280 282 281 282 282 282 282 283 282 282 282 283 283 286 285 285 285 285 286 287 287 286 287 286 285 285 286 286 286 286 287 287 288 288 286 287 286 287 287 287 287 287 289 287 287 286 287 286 286 286 286 285 285 284 284 284 284 284 283 283 284 284 284 285 283 283
276 275 274 274 275 274 275 276 279 279 276 276 274 275 275 276 276 277 277 277 278 277 278 278 278 279 279 279 279 279 279 281 281 281 282 282 283 283 283 282 283 284 284 284 284 285 285 285 285 286 287 287 287 286 286 285 285 285 284 285 285 286 287 288 288 287 287 286 287 287 287 288 287 286 288 287 286 287 287 286 285 285 285 286 285 284 284 284 284 284 285 284 284 282 282 282 282
276 274 274 274 275 274 277 277 277 280 276 275 275 275 276 276 277 277 278 279 277 277 278 279 279 279 280 279 280 280 281 280 281 282 282 281 282 283 283 283 286 283 285 285 284 285 285 286 285 286 287 286 287 286 286 286 285 285 285 285 285 285 286 287 287 288 288 289 288 288 287 287 286 286 288 287 288 286 286 286 285 285 285 285 286 286 285 288 285 283 283 282 282 282 282 282 283
275 275 274 273 275 276 276 276 277 279 276 276 275 275 275 276 276 277 277 277 279 278 279 279 279 279 280 281 280 281 280 281 280 281 281 281 281 282 282 283 283 283 284 285 285 285 286 286 286 286 286 286 287 288 288 287 286 287 286 286 285 285 286 287 286 288 288 288 287 288 289 288 287 287 287 288 288 287 286 286 286 286 285 286 286 285 285 284 284 284 283 282 282 282 283 283 282
276 276 274 275 275 275 274 275 277 279 277 277 276 275 275 275 275 276 277 277 278 278 280 279 280 280 280 281 281 280 281 280 281 281 281 281 281 282 282 283 284 284 285 285 285 285 286 288 286 286 287 286 286 287 292 289 288 289 288 288 287 286 286 288 288 287 287 286 287 288 288 288 288 288 288 287 288 287 286 286 287 286 286 286 285 285 285 285 285 284 284 284 283 281 282 283 283
276 276 274 274 275 276 276 275 276 277 278 276 275 274 273 274 274 276 278 277 278 278 278 279 280 280 280 280 281 281 281 280 281 281 282 282 282 283 283 284 284 283 284 284 284 285 286 286 286 286 286 286 286 289 287 287 288 287 287 286 286 286 285 284 284 284 286 287 288 286 287 287 287 287 287 287 287 287 287 286 286 286 286 286 286 285 285 285 285 285 284 284 283 282 282 283 284
274 276 276 277 275 276 275 275 275 273 275 277 276 269 270 274 274 274 275 275 277 277 277 278 279 279 279 280 279 281 281 280 280 282 282 282 282 283 283 283 283 283 284 284 284 285 284 285 285 285 285 286 286 286 287 288 287 285 284 284 284 284 284 285 284 284 285 286 286 287 287 287 287 287 286 286 286 288 287 286 286 286 285 286 286 285 285 285 285 284 285 284 283 283 283 282 282
272 276 275 276 276 276 275 274 275 272 271 276 276 272 264 273 274 275 274 273 275 276 276 277 277 278 278 279 279 279 280 281 281 281 281 282 282 281 282 282 282 282 284 284 283 283 284 284 285 285 285 286 287 286 286 288 285 285 284 283 283 283 283 284 285 286 286 286 287 287 287 287 287 287 287 287 287 287 287 287 286 286 286 286 287 286 285 285 285 284 286 285 284 285 283 281 281
275 275 276 276 276 275 274 275 274 275 275 278 274 273 269 268 273 274 273 274 274 274 276 277 277 277 278 278 279 279 279 279 279 280 281 280 281 281 282 283 282 283 283 283 283 284 284 284 284 285 286 287 286 285 286 286 285 284 284 283 286 285 283 284 285 285 286 287 286 286 286 286 286 286 286 286 286 286 287 287 286 286 286 285 287 286 285 285 285 285 286 285 284 284 283 282 281
277 277 277 276 275 275 275 275 275 274 273 270 273 274 269 265 271 274 273 275 273 273 275 276 277 277 277 278 279 279 279 279 279 280 281 281 281 282 282 282 283 283 283 282 283 284 284 284 284 285 285 285 285 285 287 284 286 286 283 283 283 284 285 286 286 286 285 285 284 285 285 285 285 285 285 285 285 285 287 286 285 285 284 284 285 285 284 284 282 282 282 282 282 282 282 283 282
276 278 278 277 276 276 275 274 274 272 267 266 271 273 267 268 271 273 273 273 273 274 275 275 276 277 277 278 279 279 279 280 280 279 280 280 281 281 281 281 282 282 282 283 283 283 283 283 284 285 284 284 285 284 284 284 284 285 283 283 283 283 284 284 284 284 284 284 283 283 283 284 283 283 283 283 284 284 284 284 284 282 282 282 284 282 281 281 281 281 280 280 280 279 280 279 280
278 278 278 275 274 275 273 271 270 266 262 266 272 273 271 266 271 273 273 274 273 274 274 274 274 276 277 277 278 279 279 279 279 280 280 281 281 281 280 281 282 282 282 282 282 283 282 283 283 283 283 283 284 284 283 283 283 283 283 283 283 282 283 283 282 282 283 282 282 282 282 282 282 281 282 282 282 282 281 282 281 281 281 282 281 279 279 279 279 279 279 279 278 278 278 278 279
277 275 275 274 273 272 271 265 263 264 259 264 270 272 270 264 267 273 273 273 274 275 275 275 274 276 277 277 278 279 278 279 279 279 280 280 281 282 282 282 282 282 282 283 282 282 283 282 282 282 282 283 283 284 283 283 283 283 283 283 283 283 283 282 282 281 281 281 280 280 280 279 279 280 280 279 279 279 280 279 280 279 279 278 278 278 278 278 278 278 278 278 278 278 278 279 278
277 275 274 270 264 263 266 260 264 257 264 271 270 271 268 269 272 273 274 274 274 274 276 276 276 276 277 278 279 279 279 278 279 279 279 280 280 281 281 282 282 282 282 282 282 282 282 282 281 281 282 282 282 282 282 283 283 283 283 282 282 284 283 282 282 281 280 280 279 278 277 277 277 277 277 277 277 277 279 278 278 277 277 278 278 278 278 278 278 278 277 277 277 277 277 277 277
276 274 268 261 258 254 258 251 255 258 267 270 270 270 271 273 274 273 275 275 275 274 275 276 276 277 278 278 278 278 279 278 278 279 279 279 280 281 281 280 281 281 281 282 282 283 281 282 281 282 282 282 282 283 283 283 283 283 283 283 282 282 282 282 281 280 279 278 277 276 276 276 276 276 276 276 277 278 278 277 277 277 277 277 278 278 278 278 278 277 277 276 276 277 277 277 277
274 274 272 268 258 264 261 256 264 263 265 268 268 266 262 269 273 275 275 274 274 274 275 275 276 276 277 277 277 277 278 279 279 279 279 280 281 280 280 281 280 281 281 281 281 281 281 281 281 281 281 282 282 282 283 282 283 283 283 283 282 282 282 281 279 279 277 276 276 276 276 276 275 276 276 276 278 277 277 277 277 277 277 277 276 276 276 276 276 276 276 276 276 276 276 277 276
273 273 273 269 268 265 266 257 259 257 259 264 260 266 269 273 276 277 276 274 275 275 274 275 276 276 275 277 278 279 279 279 279 279 280 280 281 280 280 280 281 280 281 281 281 280 281 281 281 281 280 281 281 283 282 282 282 282 282 281 281 282 281 279 277 277 276 276 275 275 275 275 275 276 276 276 276 276 276 275 276 276 276 275 275 275 275 275 275 275 275 275 274 276 275 275 275
275 272 266 270 274 265 258 261 258 260 256 259 259 269 273 274 275 275 274 276 276 275 275 275 275 275 275 277 278 278 279 279 279 279 280 280 280 281 281 280 280 281 281 281 281 280 280 280 280 280 281 281 281 282 281 281 281 281 280 280 279 278 277 275 275 274 275 275 275 275 275 275 275 276 276 276 276 275 275 275 275 274 274 274 274 274 274 274 274 274 273 273 273 274 274 274 274
273 268 273 275 271 266 265 263 254 252 257 261 263 265 267 269 267 274 276 275 276 275 276 275 275 275 276 278 278 278 279 279 279 279 279 279 280 280 280 280 280 280 280 280 281 280 280 280 279 279 280 280 281 281 281 281 280 280 279 278 277 276 275 274 274 274 275 275 274 275 275 275 274 275 275 275 275 274 274 274 274 273 273 273 273 273 273 273 273 273 273 273 273 273 273 274 274
276 276 277 274 262 266 263 258 259 260 257 256 263 264 265 269 271 273 273 273 275 276 275 274 276 277 277 278 278 279 279 279 279 279 280 280 280 280 280 280 281 281 281 280 280 280 280 279 280 280 280 280 280 280 280 280 279 279 278 277 275 274 274 274 274 275 274 274 274 274 274 274 274 274 274 273 273 273 273 273 272 272 273 272 272 272 272 272 272 272 272 272 273 273 272 272 272
272 276 274 273 268 264 263 263 262 260 258 259 260 261 266 269 271 272 273 273 274 275 274 274 275 276 277 278 278 279 279 279 279 279 280 280 280 280 280 280 280 281 280 280 280 280 279 279 279 280 281 280 280 279 279 278 278 277 276 275 274 274 274 274 274 274 273 273 273 274 274 273 273 274 273 273 272 272 272 272 272 271 271 271 271 271 272 271 271 271 271 271 271 271 270 270 270
272 272 268 267 267 270 270 263 263 264 254 254 254 261 263 270 274 274 274 274 274 274 275 275 276 277 278 278 278 279 279 279 279 279 279 280 280 280 280 280 280 280 279 279 279 279 279 279 279 280 279 279 278 278 278 277 276 275 274 273 273 273 273 273 273 273 273 273 273 274 273 273 273 272 272 272 271 271 271 271 270 270 270 270 270 270 271 270 270 270 270 270 270 270 270 270 270
271 271 271 271 267 264 263 262 265 257 261 257 252 264 266 274 276 276 275 275 274 274 275 275 276 278 278 279 279 279 279 279 279 279 279 280 280 280 280 280 280 279 280 279 279 279 279 279 279 279 279 278 277 277 276 275 274 274 273 273 272 272 273 273 272 273 273 273 272 272 272 272 271 271 272 271 271 271 270 270 270 270 270 270 270 270 270 270 269 269 269 269 269 269 269 269 269
Wind_Speed
7 5 5 3 1 1 1 4 1 2 2 1 1 4 1 2 2 2 1 3 1 1 1 4 8 5 3 5 12 9 5 5 2 1 2 3 9 6 14 15 16 13 13 13 15 14 17 21 30 31 32 33 33 31 30 29 28 27 26 26 26 25 25 26 26 25 28 27 27 27 27 27 25 25 27 27 27 27 26 27 26 26 26 25 24 23 20 16 16 11 11 13 12 11 8 5 4
4 5 4 1 1 1 1 1 3 1 5 4 2 1 3 3 3 3 2 2 1 3 2 3 6 10 12 13 12 8 11 8 3 2 4 5 10 4 15 15 13 14 14 12 12 15 14 18 31 31 31 30 30 31 32 33 32 31 31 31 30 28 28 28 27 27 27 28 28 28 28 27 27 27 25 25 26 27 28 27 26 25 26 27 27 27 25 24 22 21 18 16 14 13 12 11 8
3 5 3 2 2 3 2 4 1 1 5 1 1 2 3 4 4 3 5 5 5 6 4 4 5 6 4 1 7 6 3 4 4 5 1 9 11 10 14 14 13 12 12 11 12 14 13 19 29 30 30 30 30 30 32 33 30 32 32 29 29 31 31 31 30 29 28 27 27 28 29 29 28 27 26 26 25 26 27 27 27 26 25 25 25 24 25 26 26 25 25 24 23 19 16 14 12
1 2 1 1 0 3 2 5 4 6 3 2 1 3 3 2 4 5 5 4 4 1 2 4 5 4 2 11 5 3 7 2 7 6 3 8 7 9 10 13 14 11 11 9 12 14 13 22 30 29 29 30 29 30 31 29 29 29 29 30 30 32 31 31 30 30 30 29 29 29 28 28 28 27 27 26 26 27 26 26 26 26 25 25 25 25 24 24 23 23 24 24 23 24 24 24 22
1 0 1 3 3 1 4 3 3 2 4 0 3 2 2 2 4 3 2 2 3 2 1 3 4 3 5 8 5 3 4 3 6 7 3 4 7 7 9 12 12 11 12 12 12 10 12 30 29 28 30 29 27 28 29 28 28 28 28 29 30 30 30 29 29 29 29 30 30 29 29 28 28 27 27 27 27 26 26 26 26 26 25 25 24 24 25 25 24 23 23 23 23 23 23 22 22
4 2 3 2 2 1 6 7 7 7 1 1 1 1 2 2 4 4 4 6 3 5 2 6 2 3 5 5 4 3 5 3 5 5 5 5 6 7 9 10 10 11 12 11 12 10 13 25 27 29 29 28 28 28 29 28 28 28 28 30 29 29 29 28 29 29 28 29 29 29 28 28 27 27 27 27 26 25 26 26 25 25 25 25 24 24 24 23 23 24 24 23 22 23 23 22 22
1 4 6 5 5 6 6 6 5 2 3 1 0 1 2 3 6 6 1 0 2 6 7 2 3 3 7 2 3 4 1 2 3 3 4 5 8 8 10 10 10 10 12 11 10 10 15 24 26 27 29 30 28 28 28 27 27 28 28 28 28 27 27 28 28 28 29 29 29 28 28 27 27 27 26 26 27 26 25 25 25 25 25 24 24 24 24 24 24 23 23 23 23 22 22 22 22
1 3 2 9 3 6 6 3 4 1 1 2 0 1 3 1 2 1 3 1 5 4 6 2 1 5 4 3 4 2 3 3 5 3 3 7 9 9 8 9 9 10 11 11 11 10 15 25 26 27 27 28 29 30 30 28 27 27 28 28 27 26 26 27 28 28 28 27 27 26 27 26 27 26 26 26 27 26 25 26 26 26 25 24 24 24 24 23 23 23 23 23 23 23 22 22 22
5 8 1 9 7 3 4 3 2 0 0 1 3 2 5 4 2 2 5 2 3 4 8 6 2 3 3 8 7 6 8 9 9 10 10 10 8 8 6 9 9 9 11 10 10 9 10 22 24 25 27 27 28 28 27 28 27 27 27 27 28 28 28 28 27 27 26 26 26 26 26 26 26 26 26 26 26 26 26 26 26 26 25 25 25 25 24 24 23 23 23 23 23 23 22 22 23
3 3 2 5 5 7 3 2 3 1 1 1 4 5 5 5 3 6 4 6 3 3 6 7 7 9 8 7 4 6 6 9 9 10 9 8 8 8 8 9 9 9 9 10 10 10 11 17 24 24 24 25 26 26 27 27 27 27 27 26 25 25 26 27 27 27 26 27 26 26 25 25 25 25 24 25 25 26 27 27 26 25 25 25 26 26 25 24 24 23 23 23 22 22 22 23 23
2 6 2 8 6 5 4 2 1 1 1 2 3 5 7 3 5 6 6 6 5 3 3 6 6 7 5 6 4 3 6 6 7 5 5 6 7 8 7 8 8 8 8 10 10 10 11 12 20 23 23 24 25 25 25 25 26 27 27 27 26 26 25 24 24 24 24 24 24 23 24 24 24 24 24 25 26 26 26 26 26 25 25 26 25 25 25 24 24 24 24 24 22 21 21 21 21
4 3 4 6 4 6 3 8 3 1 2 4 2 7 4 6 2 4 5 6 5 7 8 8 4 3 6 3 2 4 7 6 4 3 5 6 5 6 7 6 10 10 10 10 9 10 10 9 11 17 22 23 23 24 24 25 25 25 24 24 25 25 25 25 24 24 23 23 23 22 22 22 22 23 23 25 25 25 25 26 25 25 25 25 25 25 24 25 25 25 24 23 23 22 22 21 21
7 1 8 8 2 3 3 6 3 1 2 4 3 4 4 8 7 1 3 5 6 4 6 9 7 3 3 2 3 4 7 5 4 3 5 4 3 3 3 5 6 9 10 10 10 12 12 12 10 9 14 20 20 23 23 24 24 24 24 24 24 25 25 25 24 24 24 24 24 24 23 22 22 22 23 23 24 24 24 24 24 24 24 24 24 24 25 25 25 24 24 24 23 23 23 22 22
5 4 6 5 1 3 4 1 2 3 4 2 1 3 4 3 3 3 1 7 7 3 2 6 3 2 5 4 2 2 3 3 3 4 4 4 3 3 4 3 5 6 7 9 9 7 6 7 8 9 10 10 10 12 17 22 22 22 23 23 23 23 23 23 23 24 24 24 24 23 23 23 23 23 23 23 23 23 23 23 23 23 24 24 24 24 25 25 24 24 24 24 23 23 22 22 22
5 1 7 5 2 3 1 4 1 3 1 2 3 3 3 3 1 3 7 5 3 2 6 2 2 1 2 5 3 1 3 2 3 2 4 3 3 4 6 5 6 6 8 8 8 8 10 8 7 6 9 9 9 8 8 12 21 20 21 21 22 22 22 22 23 23 23 23 24 24 23 22 22 22 22 22 22 22 22 22 24 23 23 24 24 24 23 23 23 23 23 23 23 23 22 21 22
5 7 5 5 2 4 2 3 0 4 1 2 1 3 6 3 4 2 3 1 2 1 2 2 5 2 1 4 4 3 2 2 1 3 4 5 5 5 6 7 7 7 7 9 8 7 8 8 8 7 8 8 7 7 8 9 14 19 19 20 20 21 21 20 20 20 20 20 20 21 20 17 17 16 23 17 21 22 23 20 23 22 23 23 23 22 23 22 23 23 23 23 22 22 21 20 20
1 7 8 5 4 4 1 1 1 1 1 0 3 1 2 1 2 3 3 3 6 5 6 4 4 3 5 4 3 1 2 2 1 5 6 7 6 6 6 5 6 7 6 8 9 8 9 9 10 8 9 10 10 9 9 10 12 17 13 16 17 17 16 16 16 15 14 13 14 15 14 10 9 9 11 12 16 14 19 20 21 22 22 22 22 22 22 22 22 22 22 22 22 22 20 19 19
7 7 5 7 2 3 2 1 2 3 3 0 2 1 5 2 0 1 1 8 8 6 9 5 8 9 5 3 3 3 2 5 5 8 6 5 3 5 6 7 7 7 7 7 9 9 8 8 9 9 8 9 8 7 6 7 7 10 10 9 9 10 12 12 10 9 10 8 12 9 8 8 7 8 9 11 8 11 12 19 19 20 21 22 21 21 21 22 22 22 22 22 22 21 21 10 11
8 4 5 7 3 1 2 2 2 3 2 3 2 1 3 2 2 2 3 3 1 5 6 5 7 6 5 5 4 4 5 4 6 7 6 6 4 5 6 5 6 6 7 6 7 8 7 6 7 8 8 7 7 7 6 6 7 7 8 8 7 10 9 9 8 8 7 8 8 7 7 6 7 7 7 9 8 13 12 16 17 18 18 20 20 19 19 21 20 21 21 20 20 20 11 9 9
4 7 8 2 2 1 1 3 2 3 10 6 5 1 5 1 2 0 3 3 3 5 5 5 3 5 5 4 5 4 5 5 6 6 3 4 5 6 5 5 5 6 5 5 5 5 6 6 6 6 6 7 7 6 5 6 6 6 7 7 7 7 7 7 6 6 6 6 7 6 6 6 6 6 8 11 9 6 7 11 14 15 15 16 19 12 15 17 19 18 18 19 13 8 8 9 8
2 8 4 5 5 4 1 1 4 5 2 5 4 2 4 3 2 1 8 6 2 1 1 3 9 8 7 5 4 4 5 6 4 4 5 4 5 4 2 3 3 4 3 3 4 4 6 6 6 6 6 6 6 5 5 6 5 6 5 5 5 5 5 6 6 6 6 6 7 6 6 6 5 6 6 6 6 6 7 7 7 8 8 8 13 9 9 9 10 9 9 10 8 9 9 9 8
5 4 2 4 2 5 0 1 3 3 3 7 2 4 2 0 4 6 2 1 1 0 2 4 4 6 6 5 3 4 6 5 5 4 4 4 5 4 4 5 5 3 4 4 5 5 6 5 5 5 5 5 5 5 6 5 6 6 6 5 5 5 5 6 6 6 6 6 4 5 5 6 6 6 6 6 6 6 7 7 7 7 7 8 8 8 8 8 8 8 9 9 9 8 8 8 8
10 5 4 4 0 5 1 1 4 2 2 3 1 1 1 3 2 3 5 4 1 2 3 4 4 4 4 5 5 5 5 4 3 3 3 3 3 3 4 3 2 4 4 5 5 5 6 6 7 6 7 7 8 6 6 6 6 5 5 6 6 6 5 6 6 6 5 5 5 5 6 6 6 6 6 5 6 5 6 6 6 6 6 6 6 6 7 7 7 7 8 8 7 8 9 8 8
13 4 3 8 7 7 4 3 5 5 8 4 0 3 6 2 6 3 5 2 3 3 4 5 6 6 4 4 3 4 3 3 1 0 1 1 1 3 3 3 4 3 4 5 5 4 4 5 4 4 5 5 4 5 5 5 4 5 4 4 4 4 5 5 5 5 5 6 5 5 4 4 5 6 6 6 6 6 6 5 5 5 5 5 4 4 5 6 6 5 5 6 7 7 8 8 8
10 8 1 1 5 2 4 5 7 6 6 1 8 7 3 2 3 1 2 2 3 4 5 6 5 5 4 5 4 3 3 2 2 2 2 2 3 2 3 3 3 3 4 4 4 4 4 4 4 4 4 4 4 4 4 4 4 4 4 4 5 4 4 4 4 4 5 5 4 5 4 6 6 6 6 5 5 5 5 5 5 6 5 5 5 5 4 5 5 5 5 5 5 5 6 7 7
4 3 2 4 4 3 3 6 6 4 2 3 8 6 2 2 1 5 1 1 2 2 6 4 4 4 3 2 1 2 1 0 0 0 1 3 2 2 3 3 3 4 2 3 3 4 4 4 4 4 4 4 4 4 4 5 4 5 4 4 4 3 4 5 3 5 4 4 5 4 4 3 5 4 5 6 5 6 5 5 5 5 6 5 5 6 5 5 6 5 5 5 6 5 6 6 6
3 6 5 7 2 2 4 4 2 2 2 2 4 1 1 2 3 0 1 1 2 4 3 3 4 2 1 1 0 0 0 1 1 1 1 2 2 1 2 2 2 2 2 4 3 4 4 4 5 4 4 4 4 4 4 5 4 4 4 4 4 4 4 4 4 4 4 4 4 4 4 3 3 4 4 5 5 5 6 6 6 5 6 6 5 6 5 4 4 5 5 6 6 6 6 5 5
6 7 7 7 5 10 6 4 6 2 2 4 7 1 2 5 1 1 2 2 3 5 2 2 2 1 1 1 0 0 1 2 2 1 1 1 2 1 2 1 3 3 3 4 3 4 5 4 5 5 4 4 4 4 4 5 5 4 4 5 5 5 3 4 5 5 4 5 3 4 4 4 3 4 4 4 4 5 5 6 6 6 6 6 6 5 6 6 5 5 5 4 4 5 6 6 4
2 2 7 1 6 10 12 5 6 2 1 0 0 1 4 6 2 4 1 3 3 4 2 1 1 1 1 1 1 1 1 2 2 1 4 3 2 2 3 3 3 3 3 3 4 4 5 5 4 6 5 5 5 5 5 4 4 4 5 5 6 4 5 4 5 5 5 4 4 4 4 4 3 4 5 4 4 5 5 6 6 6 6 6 6 5 6 6 6 6 7 5 6 5 6 7 6
1 7 3 3 7 7 12 5 11 3 1 1 2 1 4 3 4 3 2 4 3 3 1 1 1 2 2 2 2 3 3 2 3 4 4 4 4 3 4 4 3 4 4 4 3 5 4 3 3 4 5 6 6 6 5 6 6 6 5 6 5 6 6 6 6 6 4 5 4 5 4 4 4 5 4 5 4 5 5 5 6 7 7 5 6 6 6 6 6 6 7 6 6 6 7 7 7
3 3 5 3 3 2 4 5 11 8 3 4 0 2 3 5 6 4 4 2 4 2 0 1 2 2 3 3 3 3 5 3 4 4 5 5 4 3 4 5 4 4 3 4 4 5 5 6 3 5 4 6 5 7 6 6 6 6 7 7 7 6 7 7 7 6 6 6 5 6 5 4 5 4 4 3 6 5 5 6 6 6 6 5 5 6 5 6 6 6 6 7 6 6 6 5 6
3 2 5 4 6 1 3 5 10 6 4 8 1 4 1 1 6 5 2 2 2 2 2 2 3 3 3 4 4 4 5 4 5 5 5 5 4 4 4 6 4 4 4 5 4 4 6 6 4 4 6 6 7 6 6 6 6 6 6 6 6 6 6 7 7 6 6 6 6 6 5 4 5 5 5 3 5 6 6 6 7 6 6 5 5 5 4 6 6 6 6 5 7 8 7 8 6
6 7 1 3 3 2 2 2 7 8 3 3 5 1 3 1 7 6 1 2 0 1 2 3 3 4 4 4 4 4 5 5 4 5 5 4 5 4 5 5 5 5 4 4 5 5 6 7 5 5 7 7 7 8 7 6 6 6 6 6 6 6 6 6 6 6 6 6 6 6 5 5 5 6 5 4 4 6 6 6 7 7 6 5 5 5 5 5 5 5 6 6 5 6 7 9 8
5 4 4 1 1 3 2 6 8 8 9 4 11 6 3 6 9 6 2 1 0 0 3 4 5 5 5 5 5 5 5 5 7 5 6 5 5 5 5 5 5 5 4 4 5 5 6 6 6 5 7 6 6 6 6 6 6 6 6 6 5 6 6 5 6 6 6 6 5 6 6 6 6 6 6 5 4 5 5 5 6 7 6 6 5 5 6 6 5 5 6 5 6 5 6 7 9
2 4 4 4 2 1 1 5 6 7 5 11 6 7 9 8 7 7 5 3 0 2 4 3 4 4 5 4 5 5 6 7 10 5 5 6 6 5 4 5 5 5 4 5 5 5 5 6 6 7 7 7 7 7 6 6 6 5 5 5 6 6 5 5 5 6 6 5 6 6 5 6 6 6 6 6 5 6 6 6 6 6 6 6 5 6 6 6 5 5 6 8 5 6 7 6 8
2 4 4 1 4 3 3 2 2 4 7 10 11 5 7 9 9 7 6 4 3 3 3 4 4 4 4 5 5 5 6 9 7 4 5 5 5 6 5 4 4 4 5 5 6 7 6 6 5 8 7 7 6 6 6 6 6 6 6 6 6 6 6 6 6 5 5 5 5 5 6 6 6 6 6 6 5 5 5 6 6 6 6 5 6 6 7 5 7 8 8 8 9 6 5 6 6
4 4 4 3 1 1 1 0 3 1 2 7 3 3 6 8 7 6 5 4 7 7 6 5 5 6 6 6 7 7 8 9 5 5 5 6 7 5 5 4 5 7 6 4 6 7 6 6 6 9 8 7 6 6 6 5 5 7 4 6 6 6 7 6 6 6 4 5 5 5 5 6 6 6 6 5 6 6 6 6 6 6 6 6 6 7 6 7 6 6 7 6 7 9 6 4 5
3 4 3 3 3 2 0 1 6 7 4 4 5 4 9 6 6 6 5 7 6 6 6 6 7 5 5 6 8 7 8 6 6 6 6 5 5 5 5 4 4 6 9 8 8 8 8 8 6 7 7 6 7 5 5 5 4 4 4 6 5 5 6 6 6 8 9 8 8 6 5 5 5 5 6 5 5 5 7 6 6 7 6 6 6 6 5 5 6 6 5 7 4 6 7 3 5
3 3 1 2 5 2 3 1 3 5 5 4 3 7 6 5 4 5 5 3 1 3 2 2 4 6 6 6 5 7 7 8 6 5 5 5 6 5 4 4 4 2 6 7 7 7 7 7 6 5 6 5 6 6 5 5 4 5 2 5 4 5 5 5 4 6 6 7 8 8 8 7 7 7 7 7 7 7 7 7 8 7 7 7 8 8 7 8 7 7 6 7 10 4 6 4 5
6 6 5 2 2 4 0 1 5 7 3 3 1 6 3 4 3 4 3 3 2 3 3 2 1 4 6 6 5 6 7 7 8 5 6 6 4 4 4 5 5 6 6 6 6 6 6 6 6 6 7 6 6 7 5 5 5 6 4 5 6 4 6 6 5 6 7 6 7 7 7 7 7 8 8 7 7 7 7 8 8 7 8 7 7 9 9 9 8 8 7 8 7 11 8 7 4
2 3 2 2 1 1 2 3 4 3 2 3 2 1 1 4 4 5 5 4 1 3 3 2 3 3 2 3 4 3 4 4 5 7 7 6 7 6 5 5 5 4 5 5 5 5 4 6 7 6 6 6 6 7 7 6 6 6 6 7 4 4 3 4 4 5 5 5 6 5 7 6 6 7 7 7 7 7 6 7 7 7 7 7 6 8 8 9 9 8 8 8 8 8 12 9 7
2 1 1 0 2 1 3 3 2 2 1 3 1 1 1 3 1 2 4 6 7 4 5 5 6 6 6 6 5 6 5 3 2 4 5 5 4 6 6 6 5 5 5 5 4 5 4 6 6 6 6 6 6 6 5 5 5 4 6 7 9 9 10 10 11 11 10 10 10 8 8 8 8 7 6 7 6 6 8 7 7 7 7 7 6 7 7 8 7 8 8 7 8 7 8 11 10
2 3 1 2 0 1 2 2 2 1 3 2 1 2 3 0 1 1 2 3 4 5 4 5 5 5 5 5 5 5 6 8 7 4 5 5 5 5 5 5 4 5 6 4 5 5 5 5 5 5 5 6 5 5 6 4 6 5 5 4 4 5 6 5 5 7 8 8 7 9 9 8 9 10 9 8 8 10 9 9 9 8 8 7 7 7 7 7 7 6 6 6 7 7 6 10 11
1 1 0 3 0 3 3 3 2 2 1 1 4 2 1 2 2 2 2 1 3 4 5 5 5 5 5 5 5 5 6 5 4 5 5 4 4 3 4 6 5 6 5 5 5 5 5 6 6 6 5 5 4 5 6 5 4 4 5 5 5 6 6 8 8 7 6 7 8 8 8 7 7 7 7 7 8 9 9 9 9 9 9 8 9 8 9 8 7 7 7 7 7 6 7 8 11
1 1 1 0 3 2 3 4 5 1 2 0 7 4 2 2 3 1 1 1 2 3 4 4 5 6 5 6 6 5 5 5 4 5 6 6 6 6 4 6 7 7 5 4 5 5 5 5 6 5 6 5 6 6 5 5 4 4 4 4 5 5 6 7 7 6 7 7 7 7 7 7 6 6 6 7 7 7 8 7 7 7 8 9 9 9 9 10 12 11 11 10 9 9 8 9 10
1 1 4 3 2 2 1 3 4 1 3 1 4 4 1 6 2 1 1 0 3 2 3 4 4 5 5 6 7 7 6 6 5 4 5 7 6 6 5 5 7 6 5 5 5 4 5 5 6 7 7 6 6 6 6 6 6 5 6 6 6 8 7 7 5 8 7 6 8 8 7 7 7 7 7 6 6 6 6 7 8 8 8 9 9 9 10 11 10 10 11 11 11 12 10 10 11
1 3 1 1 4 3 2 5 3 3 2 1 1 3 3 3 3 5 4 3 3 2 3 3 4 5 5 4 4 5 5 6 6 7 8 7 6 6 4 6 7 7 5 4 5 5 4 4 5 6 5 5 5 6 5 5 5 5 5 5 6 8 9 8 9 9 8 8 9 9 8 9 8 8 7 7 7 7 7 7 8 8 8 8 9 9 9 9 10 10 11 11 12 12 10 11 11
1 1 1 2 1 5 2 5 3 2 2 2 1 1 1 1 4 3 5 2 2 3 2 3 4 5 5 5 6 6 5 5 6 6 7 7 9 10 7 8 7 8 7 7 6 5 5 4 4 5 6 5 5 5 4 5 5 5 4 5 6 7 7 8 9 10 10 10 9 10 9 9 9 8 7 7 8 7 8 7 7 8 8 9 9 9 9 9 10 10 10 9 10 10 10 10 11
5 3 7 4 3 6 2 8 3 0 1 2 1 3 2 3 6 1 2 4 4 4 5 4 3 5 6 6 7 6 6 5 6 6 6 7 7 8 8 9 8 8 8 7 7 5 4 4 3 4 6 5 4 4 4 5 5 5 5 5 5 7 8 8 8 9 9 9 9 10 10 10 9 9 8 9 8 8 8 8 8 8 9 9 10 10 10 10 9 9 9 10 10 10 9 10 10
12 9 3 4 3 4 1 3 3 3 4 1 2 1 2 3 4 3 4 5 5 3 5 5 5 5 6 6 6 7 7 6 6 6 6 7 7 7 7 6 6 6 7 8 7 5 4 5 5 4 6 5 4 5 5 6 7 7 6 7 8 7 8 8 8 9 9 8 8 10 9 9 10 10 10 9 9 9 8 9 10 10 10 11 10 9 9 9 9 10 10 10 10 9 10 11 11
2 1 1 2 4 1 2 1 1 2 6 6 4 1 3 3 2 2 7 3 3 3 4 5 6 7 6 6 6 6 5 6 5 6 7 7 8 7 7 7 6 6 7 7 6 4 4 5 5 6 6 7 6 7 6 7 8 8 7 7 8 7 8 8 8 8 9 10 9 9 9 8 9 9 9 9 9 9 9 9 10 11 11 10 10 10 10 11 10 10 9 11 11 8 11 9 10
1 2 3 5 1 1 0 2 1 1 3 7 2 2 2 2 1 2 1 3 4 2 3 3 5 4 3 5 5 6 7 7 7 6 7 8 8 6 6 6 6 6 6 6 5 4 5 5 5 5 4 5 5 5 6 6 7 7 7 8 8 7 8 8 8 8 9 8 9 9 10 9 8 9 8 9 9 8 9 11 10 10 11 11 10 12 11 10 10 10 10 10 11 8 10 11 11
3 2 3 1 2 4 4 1 1 1 2 3 1 7 3 7 1 1 2 2 5 4 4 4 5 5 5 5 6 6 7 7 7 7 7 8 8 8 6 6 6 6 6 6 5 4 4 4 4 5 6 5 6 5 6 6 6 6 7 7 7 8 9 9 9 10 10 9 9 9 9 9 9 8 8 7 9 9 10 11 11 10 10 10 11 10 10 10 10 10 10 10 12 10 11 12 10
1 3 1 2 3 4 2 1 3 4 2 3 3 3 7 5 2 2 1 4 7 6 7 5 6 5 5 7 7 7 8 8 8 8 7 7 7 6 6 6 5 6 6 5 5 5 4 3 3 4 5 6 6 6 6 6 7 6 7 7 7 8 9 9 9 10 9 9 9 9 9 9 8 8 8 9 10 12 10 11 9 11 10 9 10 9 10 10 10 10 11 10 10 9 11 9 11
5 3 3 1 2 2 3 3 4 4 3 4 7 2 6 5 5 2 2 3 6 7 5 4 6 6 7 7 9 9 8 7 7 7 7 8 7 7 7 7 7 6 5 4 5 4 4 4 4 4 5 5 5 5 4 5 5 6 6 8 9 9 8 8 8 9 9 9 10 10 9 9 9 9 11 10 10 10 10 9 9 10 8 10 9 10 11 9 9 9 10 10 9 9 10 11 10
3 2 3 2 3 2 2 0 2 4 3 6 6 5 4 4 4 3 3 5 5 6 4 5 5 6 7 7 8 8 8 8 8 7 7 8 8 7 7 7 8 8 7 6 6 4 4 4 4 5 5 5 6 6 5 7 7 7 8 8 8 8 8 9 8 9 9 9 9 9 10 10 10 10 9 10 9 10 11 11 9 9 10 10 9 10 9 10 9 8 10 9 10 11 11 11 11
4 5 3 2 2 2 4 1 1 1 3 2 1 8 6 6 5 4 5 4 5 5 6 5 5 7 8 8 9 8 8 8 8 7 7 8 8 8 8 7 6 5 4 4 3 4 4 4 5 5 7 7 6 6 6 7 8 9 9 10 10 10 10 8 9 9 9 9 9 9 10 9 10 10 10 9 10 10 10 10 11 12 11 9 10 10 8 10 8 10 8 10 10 9 11 10 11
1 1 2 4 1 2 1 5 3 2 1 3 2 9 7 9 2 5 5 4 4 5 5 5 6 8 9 10 9 9 8 9 8 8 7 7 7 8 8 7 5 4 5 5 5 4 4 5 5 5 5 5 6 7 7 8 8 8 9 10 11 9 9 8 9 9 9 10 10 10 10 10 10 10 8 10 10 9 9 10 9 10 9 8 10 9 10 8 11 11 12 10 10 11 12 12 10
Wind_Direction
331 328 313 309 22 138 83 355 170 319 65 60 68 24 101 42 81 65 8 218 20 37 349 12 28 19 56 97 117 107 49 85 21 35 141 355 342 345 352 345 334 329 329 330 327 321 330 345 17 25 29 37 37 46 51 52 52 54 55 57 53 54 54 52 48 44 45 42 41 40 39 39 38 38 33 33 34 34 31 30 30 30 31 33 38 40 40 37 27 12 15 9 359 351 354 4 15
329 319 316 271 253 48 200 129 102 11 40 72 13 65 335 338 51 2 341 52 56 147 147 88 61 77 89 109 125 129 63 60 14 334 272 8 327 14 347 342 328 345 334 333 324 333 334 354 20 27 32 36 39 41 45 44 42 43 45 47 48 48 51 51 51 46 45 44 40 38 38 38 39 38 36 37 37 36 33 31 33 34 29 28 26 23 31 37 37 38 34 21 7 358 359 352 338
327 354 347 25 23 70 82 32 276 43 97 112 301 338 311 39 56 12 33 78 103 127 153 118 100 45 23 117 58 13 128 78 30 3 345 2 5 349 338 340 340 348 337 337 335 336 349 6 23 32 33 38 40 41 45 45 40 41 41 42 45 46 45 44 44 46 45 47 44 42 38 36 37 37 36 38 38 38 35 33 33 34 34 32 32 26 26 31 29 28 31 29 28 24 9 6 353
27 42 110 7 141 27 59 29 72 120 95 192 59 341 34 78 82 77 47 61 99 91 245 13 41 343 332 51 16 77 68 41 54 0 357 10 8 317 325 341 342 342 341 344 346 345 358 11 24 32 37 40 39 43 45 47 47 45 43 42 43 42 42 42 43 42 43 43 43 43 42 38 35 35 36 37 38 38 36 35 34 34 34 34 33 31 29 31 33 30 28 30 29 31 35 34 26
65 349 84 107 106 17 89 72 104 61 97 234 124 309 36 71 90 67 31 42 22 6 21 152 98 9 69 73 4 40 343 296 42 47 14 23 339 319 337 342 350 344 351 348 353 340 349 18 24 30 35 41 42 44 46 45 46 47 45 45 43 42 42 41 42 43 43 43 42 41 41 41 37 33 34 36 38 39 37 35 35 35 35 35 35 34 33 32 31 34 33 27 27 28 28 30 27
61 53 350 80 65 153 52 43 22 59 122 240 74 358 79 76 117 119 115 91 74 50 32 46 98 178 54 31 23 55 337 47 350 51 19 1 332 319 356 347 356 351 352 352 358 357 357 19 25 33 38 39 40 43 45 43 44 44 46 48 47 46 44 44 43 43 43 41 40 39 37 38 38 35 34 34 36 38 38 36 35 34 34 34 34 35 34 33 33 32 34 33 30 28 28 28 26
223 53 1 34 31 49 97 90 61 99 355 120 58 354 48 104 136 127 165 133 68 75 31 76 83 126 87 136 92 77 202 354 16 44 52 12 1 359 4 354 357 350 356 359 356 358 9 25 28 31 37 40 42 44 46 46 44 45 44 46 46 46 45 44 43 44 43 43 41 39 37 36 36 35 33 33 35 36 37 37 35 34 33 32 34 34 34 33 32 33 33 32 33 32 30 31 30
36 103 330 86 50 57 54 95 68 158 352 75 25 58 8 312 199 74 359 97 351 27 352 140 273 84 69 356 99 39 25 40 45 36 27 28 11 2 3 359 359 359 1 4 4 3 7 26 30 33 35 39 40 41 43 44 45 46 46 45 44 44 45 46 45 42 43 44 43 42 40 37 36 35 33 33 32 33 35 37 34 33 32 31 32 33 34 33 32 33 32 32 30 32 32 30 31
10 84 309 71 59 53 74 44 108 350 138 26 0 359 8 15 18 103 46 36 124 45 21 344 255 77 120 78 72 44 45 44 48 42 33 26 15 358 6 4 8 356 5 7 11 7 12 20 28 31 34 36 37 38 40 42 42 43 43 45 43 38 38 42 43 43 43 42 40 38 38 37 36 34 32 34 32 30 31 35 34 31 30 30 31 31 31 32 32 32 32 31 31 29 30 30 31
37 81 49 103 138 69 76 337 73 124 146 96 61 17 3 348 47 58 108 54 71 93 20 3 60 95 113 72 111 35 29 32 38 36 32 26 16 2 6 8 9 3 8 9 14 15 20 19 26 29 31 34 36 36 38 39 40 40 41 42 41 42 39 38 37 39 40 40 38 36 35 36 34 32 31 32 33 31 30 30 32 30 29 29 29 29 28 29 30 31 31 31 31 30 29 29 29
33 13 132 80 50 100 105 128 133 50 39 340 44 9 13 348 49 61 47 97 41 53 5 341 56 57 82 71 70 112 79 59 52 41 48 41 12 2 359 8 8 14 16 17 19 23 24 25 25 28 31 33 36 37 37 37 38 39 39 39 39 39 39 38 38 37 37 40 40 37 35 34 33 32 30 30 31 31 29 28 27 27 28 27 28 27 26 26 28 29 29 29 29 29 29 29 28
55 10 25 92 103 142 196 131 151 121 7 19 26 21 336 26 30 35 9 51 354 59 57 358 96 158 67 105 98 73 62 54 71 63 55 43 25 358 6 13 14 12 23 18 15 23 21 21 26 27 31 32 35 38 40 40 39 39 40 40 40 40 39 38 37 37 36 37 38 37 35 33 31 30 29 28 28 28 28 26 25 25 26 25 26 24 24 24 25 26 26 26 26 26 26 27 27
104 81 80 76 347 46 122 96 176 106 21 25 345 353 330 52 44 344 88 66 6 35 5 6 292 302 91 67 125 83 50 36 35 51 55 47 14 343 1 38 32 35 26 21 26 25 24 24 24 24 28 31 33 34 39 40 40 41 41 41 41 39 37 36 35 34 34 34 34 35 34 32 30 30 28 26 25 24 24 22 21 23 24 24 24 23 23 23 22 22 22 23 24 24 22 23 24
100 156 101 99 357 83 73 65 12 65 27 297 36 329 17 58 3 356 141 47 3 36 303 330 352 359 101 133 139 61 75 43 38 53 57 32 355 313 352 12 19 33 38 32 29 19 10 4 17 15 18 19 19 25 25 33 35 36 37 38 41 42 40 39 38 36 34 34 33 32 31 30 28 28 28 27 25 23 23 21 19 20 22 22 21 20 21 21 20 19 20 20 20 20 21 20 20
109 145 85 104 42 64 7 83 59 85 20 50 340 37 26 28 246 46 65 102 42 284 293 283 32 233 197 170 139 109 64 55 66 35 38 350 0 14 16 11 14 21 21 27 25 16 11 349 5 8 15 11 11 14 19 18 31 31 32 33 35 36 36 35 34 33 32 32 31 30 30 28 26 25 26 25 25 23 22 20 19 19 21 22 22 21 19 19 17 17 17 16 16 18 18 17 18
123 90 71 86 17 83 338 79 80 72 64 7 274 165 72 25 31 60 344 154 153 353 26 344 12 72 0 64 79 82 69 92 89 61 40 13 10 30 31 26 22 19 22 20 12 17 13 12 14 15 16 12 13 16 18 22 27 31 27 28 30 32 33 32 32 32 31 30 29 29 28 27 22 19 21 20 20 21 20 19 18 19 19 21 21 20 19 18 18 17 16 15 14 14 14 15 16
76 81 63 41 57 52 315 87 98 152 225 286 321 73 112 53 9 84 99 51 84 29 49 37 31 28 45 89 130 106 105 106 66 55 43 30 21 20 17 22 12 21 17 22 21 16 19 19 18 19 14 13 16 14 15 19 21 28 22 22 26 27 30 31 32 30 30 27 30 28 28 28 24 21 18 19 18 17 16 18 18 18 18 19 20 19 18 18 18 16 15 14 12 11 10 11 13
52 57 116 59 165 81 212 175 173 156 121 210 2 348 110 86 165 193 243 51 78 74 62 59 56 62 77 100 103 107 80 60 45 61 38 42 21 33 21 15 17 15 15 17 18 19 17 19 21 22 19 15 19 19 19 19 20 23 21 19 22 23 22 25 23 26 24 22 24 27 27 25 21 20 20 20 19 16 14 17 18 18 18 17 18 17 17 15 16 15 13 13 11 10 8 6 4
70 103 59 128 192 209 148 215 184 108 158 163 145 62 130 132 130 196 87 358 40 65 60 76 76 74 82 82 78 72 64 54 74 70 52 40 24 24 23 15 13 8 16 18 16 14 14 15 20 21 20 15 19 23 21 22 21 23 21 20 19 22 19 21 17 17 19 19 19 23 26 23 23 21 19 20 19 18 17 17 17 17 17 15 17 15 16 13 15 13 11 11 10 9 7 4 0
17 103 81 34 206 157 231 196 196 162 149 130 109 78 77 312 135 42 114 129 59 84 134 97 76 122 117 121 117 108 94 72 62 75 63 49 21 29 9 7 9 15 8 13 7 5 13 14 13 19 19 14 23 19 22 23 20 20 21 17 18 17 15 17 14 12 13 13 13 17 18 19 18 20 15 15 16 14 12 13 14 15 13 12 14 12 12 11 12 10 9 8 8 9 6 1 357
326 69 126 172 182 106 19 69 121 131 137 129 122 180 82 28 18 83 162 83 35 228 258 198 158 152 145 143 117 112 105 95 80 63 50 36 34 31 1 352 7 349 341 343 5 5 8 13 9 17 17 17 22 13 19 19 17 21 16 14 14 16 13 13 13 11 9 8 7 7 7 11 10 13 12 8 13 7 9 8 9 9 7 7 8 10 8 5 7 5 3 6 6 2 0 358 354
83 63 35 95 77 71 82 8 10 100 55 97 65 68 100 276 33 22 341 100 148 276 6 64 95 123 124 127 91 76 73 71 58 51 38 34 26 5 354 354 349 358 330 11 354 355 3 6 13 3 12 17 23 17 14 13 21 20 12 9 13 17 11 13 12 9 6 3 0 356 2 6 5 4 4 6 7 2 5 5 3 1 4 3 3 3 4 2 2 2 2 2 358 356 355 351 354
90 360 35 25 249 120 342 26 347 51 72 57 65 61 74 58 92 26 60 59 35 23 80 88 105 106 93 90 104 83 77 80 70 50 36 29 6 352 352 337 342 342 350 3 352 351 352 359 0 1 13 6 9 6 11 16 16 6 0 1 16 3 10 12 6 3 358 358 359 357 5 0 0 357 356 358 360 357 0 357 356 356 355 356 355 358 356 358 356 357 357 354 350 348 348 347 346
87 82 26 26 36 52 355 39 32 45 63 42 265 51 60 4 61 345 57 350 24 13 60 69 65 78 80 98 77 94 89 79 89 37 302 316 313 322 322 336 333 332 21 345 347 325 342 343 342 6 3 11 352 355 12 9 356 2 360 2 8 1 13 8 352 352 353 357 357 354 356 356 355 353 350 353 347 352 352 345 342 346 346 342 340 350 347 347 348 350 344 341 342 344 342 343 342
71 80 14 357 47 14 42 68 58 65 50 50 61 57 1 63 122 62 32 4 18 37 59 61 63 66 66 86 82 79 79 44 23 340 345 342 329 322 353 339 341 12 16 342 323 349 339 333 342 3 355 354 355 349 9 342 351 350 355 0 350 351 7 351 335 339 359 344 351 355 353 352 348 349 343 338 335 339 336 338 337 337 333 333 339 334 350 335 338 337 335 331 332 332 335 335 335
32 103 80 64 77 40 2 59 44 44 107 38 61 54 48 85 5 58 193 338 357 51 63 48 64 68 59 66 41 74 102 139 311 324 277 295 343 25 337 339 335 27 318 290 335 324 311 326 348 346 343 345 348 2 352 346 343 345 341 339 322 343 342 326 339 348 333 350 343 346 343 340 335 334 329 326 340 329 329 327 331 329 328 320 335 327 329 328 325 327 321 324 323 326 326 318 328
137 91 92 98 67 66 5 90 355 347 88 313 100 155 333 312 66 223 244 260 63 70 59 27 70 72 25 4 13 351 234 227 224 285 314 344 338 358 302 323 358 315 317 343 324 313 310 329 341 333 339 342 354 357 338 336 329 333 318 316 320 324 315 324 333 327 326 333 326 327 332 331 328 324 325 316 320 318 320 326 321 322 319 320 321 314 308 307 303 300 309 315 320 321 314 306 311
95 124 102 55 41 63 12 25 9 348 356 48 108 153 257 307 58 164 215 123 96 109 58 34 33 28 5 356 1 308 267 263 282 238 216 289 268 273 290 290 306 312 330 319 294 300 319 326 319 320 324 325 344 335 329 330 326 312 313 316 314 303 304 310 313 317 315 313 310 319 316 321 310 315 318 314 310 315 313 314 313 318 309 311 314 306 310 309 305 301 301 299 298 301 302 306 296
113 42 79 353 17 44 12 7 328 357 2 163 290 52 11 357 18 317 261 95 83 91 78 27 21 348 332 324 317 303 256 292 320 285 247 235 259 249 264 249 245 286 268 256 288 315 302 307 320 313 320 322 334 323 319 306 303 307 306 307 301 304 308 304 307 305 304 296 302 301 305 306 303 303 306 301 307 308 304 309 311 305 298 300 308 305 307 305 311 313 307 311 310 306 309 312 312
73 32 93 24 11 32 359 349 357 48 332 59 7 47 309 315 317 343 24 87 75 74 61 356 338 333 319 320 312 306 301 303 281 247 251 260 257 254 236 269 236 235 275 301 330 309 298 302 300 306 316 323 318 317 316 317 314 313 313 311 307 308 306 307 300 300 296 298 298 299 298 298 298 297 293 307 305 304 303 299 297 299 298 304 304 308 309 304 301 306 298 316 307 314 307 305 312
99 291 56 53 41 350 347 38 350 35 1 31 355 152 294 331 357 20 6 81 120 136 272 316 334 320 314 308 307 289 285 247 254 278 276 266 265 258 239 276 281 261 288 300 288 279 303 295 309 311 315 315 318 319 323 323 326 328 328 323 320 321 314 311 302 303 306 301 304 299 299 299 301 299 298 298 305 305 301 300 295 287 294 297 299 298 302 299 297 296 301 306 300 300 291 290 297
33 49 347 341 81 292 303 7 31 33 316 4 50 60 67 348 6 330 340 58 107 154 258 312 316 309 307 304 300 293 274 288 283 279 269 273 274 275 252 261 267 279 257 259 283 300 302 299 308 308 311 315 315 315 319 322 322 322 318 315 317 318 315 310 308 307 308 305 305 303 302 304 302 303 304 303 304 304 304 300 292 294 296 296 289 291 292 290 294 293 290 289 302 300 303 299 292
4 84 80 340 20 311 354 50 16 18 265 5 37 145 346 314 346 329 332 113 99 178 282 304 311 309 309 308 308 301 310 305 307 284 280 275 277 257 265 261 264 250 252 276 282 296 299 300 315 322 314 313 316 320 325 326 329 326 320 313 309 312 313 311 309 313 310 309 310 305 304 306 304 303 301 300 293 297 298 293 293 295 297 297 296 290 288 280 281 285 283 280 264 279 289 292 297
0 29 108 205 39 335 20 310 20 0 39 20 5 73 333 292 321 317 354 120 102 281 294 323 331 325 320 323 317 310 302 294 281 269 266 268 267 274 266 271 282 288 284 278 274 273 285 301 310 311 309 310 313 310 315 317 318 317 316 315 313 316 312 306 305 312 306 302 305 299 304 304 301 304 302 300 294 285 280 281 291 294 296 298 297 294 286 288 280 267 281 270 268 268 272 278 287
355 351 29 346 347 68 36 20 320 13 17 54 2 58 4 343 348 5 337 354 106 352 355 327 327 326 318 315 305 297 293 286 265 276 296 300 297 285 288 288 296 300 297 300 303 298 303 307 322 317 313 315 321 321 320 321 319 317 312 318 323 312 310 308 302 308 297 298 294 294 300 300 299 298 296 296 295 291 293 291 291 292 295 292 293 297 295 294 290 282 277 289 272 257 263 265 269
135 152 120 131 47 338 19 296 291 37 22 33 28 35 343 4 7 353 353 6 58 340 352 360 344 328 313 295 281 272 266 269 265 288 287 286 276 282 292 309 306 302 301 304 311 314 318 325 330 316 313 318 323 322 328 324 325 323 321 320 326 318 315 316 312 290 286 287 284 292 293 291 288 289 289 289 285 285 286 289 291 293 294 293 294 298 298 295 295 298 294 290 294 286 263 268 268
109 90 98 61 47 299 286 276 322 352 85 23 11 355 30 17 360 337 331 352 22 10 359 352 349 344 332 323 309 297 285 271 311 296 293 287 286 288 295 310 313 311 298 321 326 322 325 319 322 309 308 320 325 324 325 327 323 324 330 321 313 308 312 315 309 305 294 279 286 288 285 282 283 285 285 288 288 289 287 286 288 289 286 287 284 282 280 284 275 270 279 280 288 290 288 262 270
126 117 100 59 61 344 232 290 330 352 106 350 358 28 36 15 1 355 353 38 7 352 352 3 348 341 335 329 323 314 294 303 322 322 312 311 312 315 323 320 341 339 316 331 322 313 305 311 308 300 310 318 314 309 299 302 277 267 263 275 275 289 304 313 319 323 324 323 314 300 288 283 283 282 288 290 290 290 297 298 297 294 296 291 284 279 284 283 289 287 285 294 244 268 288 266 277
40 90 136 74 5 274 285 225 331 358 79 16 359 63 27 10 358 2 24 5 359 318 328 311 328 354 353 347 340 332 338 328 323 301 306 326 324 323 328 319 322 301 291 299 302 310 314 315 312 310 308 311 307 307 310 299 295 299 260 288 293 294 281 273 274 283 299 299 302 307 310 310 306 305 302 305 304 305 301 303 301 301 299 298 303 303 302 303 300 294 292 284 301 271 274 271 252
59 27 50 72 274 44 30 301 358 353 75 159 86 76 40 347 341 359 5 13 296 315 299 317 346 7 357 355 334 335 349 348 346 327 310 311 306 315 332 330 321 320 315 316 318 319 316 315 316 323 318 318 313 310 312 313 303 295 294 275 287 256 272 295 299 293 294 294 296 297 299 297 302 301 302 299 298 295 295 296 298 301 299 301 297 301 302 301 302 301 295 288 285 300 298 295 269
356 92 121 137 64 28 187 259 338 306 29 90 95 43 350 14 13 353 331 337 335 346 326 340 354 13 321 304 353 350 336 339 346 345 341 341 341 333 316 301 313 316 308 304 307 310 312 306 306 309 307 307 306 310 323 324 325 334 328 321 304 300 282 278 285 291 284 290 297 311 306 304 300 301 300 299 299 299 299 296 297 295 295 292 293 293 296 296 298 293 291 289 287 285 296 294 294
337 257 169 134 121 313 283 303 7 44 358 8 117 44 314 304 343 297 289 343 6 327 18 353 336 337 355 4 339 341 351 317 298 321 317 311 307 315 330 327 332 321 313 304 303 297 302 304 310 315 314 311 314 318 327 328 330 330 337 346 345 345 342 344 341 334 331 331 326 317 315 320 317 313 308 305 301 305 309 308 304 303 298 294 288 286 291 296 294 292 288 286 290 283 282 297 297
72 331 129 74 231 222 207 279 134 55 100 328 358 102 269 323 62 314 306 333 330 326 359 327 320 324 340 337 334 335 338 341 342 335 339 346 332 335 319 319 310 307 295 308 312 310 310 303 306 308 307 312 324 326 330 345 343 348 344 332 315 313 311 291 295 308 314 312 315 316 315 318 317 315 316 319 321 320 319 317 315 311 309 308 306 306 306 302 296 290 293 291 288 295 300 294 296
23 165 148 321 151 165 197 118 104 145 358 145 40 91 176 300 255 238 304 321 325 326 326 326 330 331 328 319 319 316 315 320 312 307 308 303 293 275 283 297 301 285 291 306 309 314 318 315 317 319 323 325 326 331 337 352 351 341 342 340 330 325 316 303 307 304 299 301 306 304 307 304 302 303 307 313 314 313 313 313 316 319 321 322 323 319 314 313 317 313 310 301 298 295 294 292 296
285 301 258 169 177 175 140 101 93 129 105 21 358 3 66 265 261 319 7 259 326 301 302 305 316 323 318 317 313 311 304 290 284 298 305 300 297 300 287 291 295 303 301 306 308 308 313 323 324 326 335 342 335 340 341 341 347 340 330 321 322 305 300 302 302 297 300 301 301 304 301 301 303 307 307 308 308 308 310 314 318 320 321 319 318 314 315 319 315 312 312 312 309 305 301 297 294
263 107 83 59 66 70 102 100 98 352 64 320 352 347 76 286 274 318 333 241 266 256 278 288 286 292 297 302 310 314 317 319 312 283 280 289 285 283 279 281 291 286 295 303 305 320 331 340 334 337 337 338 330 336 344 340 344 342 340 329 322 316 313 307 304 308 309 311 309 310 311 313 315 313 310 308 308 308 313 316 316 316 315 314 313 313 312 309 309 308 308 308 306 303 299 294 288
6 87 79 9 33 17 22 54 81 58 31 268 292 348 113 300 253 203 160 229 192 240 307 289 296 309 306 291 290 301 307 308 306 311 305 296 293 280 287 295 289 303 311 316 321 331 324 334 326 330 323 321 330 330 336 327 325 328 325 323 319 316 315 314 320 319 319 321 319 318 320 319 316 311 313 310 312 314 315 316 315 315 316 314 310 307 303 306 304 302 299 296 293 291 290 286 283
145 86 111 53 305 6 29 346 31 81 289 254 269 301 134 164 293 283 236 280 209 165 217 265 286 287 285 293 304 306 308 306 305 309 308 313 321 320 326 318 317 310 320 333 331 328 330 332 328 324 322 325 318 315 317 313 317 316 320 317 312 306 314 322 322 320 322 319 319 319 318 315 311 310 311 312 314 318 316 314 317 314 312 311 306 304 301 298 295 295 293 290 288 285 282 282 280
36 113 41 80 287 27 326 9 5 12 193 185 212 51 45 248 219 228 240 234 260 217 211 217 245 275 289 297 301 302 303 313 313 307 308 311 306 304 309 308 318 325 325 319 312 311 313 315 320 325 317 319 314 312 317 320 324 326 322 317 313 319 324 323 321 319 320 319 323 319 320 316 316 316 318 316 315 318 319 318 318 317 313 308 304 301 298 298 297 296 295 292 288 286 285 282 281
14 39 35 62 34 35 317 273 213 301 293 266 28 286 226 240 293 208 197 231 216 226 234 242 243 254 270 284 297 303 305 303 295 295 294 291 295 297 297 296 303 306 308 309 308 316 322 329 337 339 318 317 322 327 330 336 336 334 332 328 327 329 327 326 324 319 319 321 320 314 314 313 313 313 314 315 318 321 321 318 318 314 311 307 307 309 311 312 310 304 303 300 296 293 291 288 285
19 168 105 151 142 110 322 239 340 252 247 283 297 34 241 15 239 211 221 234 277 249 252 256 251 251 264 279 275 281 292 302 298 298 293 292 294 296 297 303 302 300 299 301 302 320 331 333 332 329 324 327 334 329 335 337 332 329 329 328 328 330 325 326 323 320 320 320 315 311 309 310 308 310 312 313 319 318 318 320 320 315 312 313 317 316 312 307 302 298 296 294 292 289 290 291 289
255 155 112 56 9 136 34 212 168 281 334 337 339 183 184 193 224 283 268 295 296 314 307 336 295 279 305 307 312 303 297 292 295 294 299 301 300 302 307 305 304 300 296 294 305 333 332 319 314 306 302 305 313 324 329 325 319 320 323 326 327 329 326 322 318 318 314 312 310 310 309 308 308 309 311 314 316 323 324 320 313 307 311 312 312 307 304 302 304 303 298 297 295 301 296 295 292
307 55 30 218 165 99 84 80 77 53 53 262 210 318 301 295 37 355 338 333 292 318 299 319 301 300 324 295 294 296 289 290 291 295 297 299 305 309 307 302 300 300 297 299 313 315 303 305 311 310 312 312 316 324 320 315 314 322 323 324 326 327 323 321 319 316 313 311 311 310 310 310 310 313 316 321 320 322 316 312 310 310 310 308 304 303 304 306 307 303 299 299 296 300 294 291 288
47 47 238 104 116 122 121 253 334 62 120 260 33 287 307 28 310 322 343 308 279 280 270 275 293 287 299 283 285 284 285 285 288 286 281 279 278 280 289 290 283 280 283 304 316 317 310 295 288 292 300 313 318 322 320 320 322 323 320 323 324 322 321 319 316 312 312 313 313 312 311 312 316 323 323 318 317 312 310 312 309 308 306 305 308 308 307 304 302 297 295 291 290 292 291 287 288
116 149 176 71 335 351 328 90 360 351 338 292 312 290 246 186 259 342 302 252 271 270 279 305 291 301 289 289 291 293 296 300 299 300 303 303 303 305 302 297 297 296 300 303 306 310 317 312 296 284 294 305 309 312 312 317 323 324 325 325 324 322 321 317 312 309 313 313 313 312 312 314 321 321 315 313 311 310 311 311 306 303 309 312 310 305 304 300 299 296 298 298 298 300 300 300 299
27 34 45 330 98 138 5 58 206 125 270 24 294 23 273 205 225 196 245 241 248 272 303 261 258 272 283 285 289 294 297 296 293 294 294 292 296 299 298 298 300 307 316 315 309 315 313 298 297 305 316 324 326 329 332 329 329 325 322 322 320 319 317 315 313 313 313 312 310 313 319 321 318 314 309 310 310 311 310 308 313 317 312 309 305 302 304 305 306 301 303 301 301 299 293 291 291
332 31 352 356 42 213 123 33 104 196 188 181 244 332 282 262 212 184 230 233 244 229 246 256 270 284 291 289 288 291 292 291 290 288 290 294 298 302 302 300 300 307 301 290 291 296 285 294 314 328 326 324 328 330 334 330 330 326 326 324 322 322 318 314 312 312 311 311 315 318 319 316 313 309 311 311 311 310 312 318 316 311 308 305 307 309 309 307 301 300 297 296 295 293 292 291 295
182 138 125 168 82 22 37 281 23 67 55 236 113 270 278 278 178 210 228 239 255 247 224 261 281 290 295 295 294 293 294 292 288 288 289 295 300 300 299 298 301 310 311 327 325 321 320 321 314 314 323 328 331 333 334 328 327 323 322 321 320 316 312 313 313 316 316 317 318 318 317 316 310 307 313 313 311 315 315 310 308 307 304 307 308 308 308 306 308 305 303 303 302 301 299 295 292